When you browse on this site, cookies collect data to enhance your experience and personalize the content and advertising you see.
Visit our Privacy Policy to learn more. By continuing to use the site, you agree to this use of cookies and data.
EN

Hourly Weather Myloradove

Today, 4 August, Tuesday

Time Temperature Precipitation Wind Pressure Humidity
00:00 +17°C° 0 mm 3 mps 753 mmHg 67%
01:00 +16°C° 0 mm 3 mps 753 mmHg 69%
02:00 +16°C° 0 mm 2 mps 753 mmHg 73%
03:00 +16°C° 0 mm 2 mps 753 mmHg 75%
04:00 +16°C° 0 mm 2 mps 753 mmHg 77%
05:00 +15°C° 0 mm 2 mps 753 mmHg 78%
06:00 +18°C° 0 mm 2 mps 754 mmHg 72%
07:00 +20°C° 0 mm 3 mps 754 mmHg 65%
08:00 +22°C° 0 mm 3 mps 754 mmHg 59%
09:00 +25°C° 0 mm 3 mps 754 mmHg 53%
10:00 +26°C° 0 mm 3 mps 754 mmHg 48%
11:00 +28°C° 0 mm 3 mps 753 mmHg 43%
12:00 +28°C° 0 mm 3 mps 753 mmHg 41%
13:00 +29°C° 0 mm 2 mps 753 mmHg 39%
14:00 +29°C° 0 mm 2 mps 753 mmHg 37%
15:00 +29°C° 0 mm 3 mps 753 mmHg 39%
16:00 +29°C° 0 mm 3 mps 752 mmHg 41%
17:00 +28°C° 0 mm 3 mps 752 mmHg 44%
18:00 +26°C° 0 mm 3 mps 752 mmHg 48%
19:00 +24°C° 0 mm 3 mps 752 mmHg 53%
20:00 +21°C° 0 mm 3 mps 753 mmHg 57%
21:00 +21°C° 0 mm 3 mps 753 mmHg 60%
22:00 +20°C° 0 mm 3 mps 753 mmHg 62%
23:00 +19°C° 0 mm 3 mps 753 mmHg 65%

Tomorrow, 5 August, Wednesday

Time Temperature Precipitation Wind Pressure Humidity
00:00 +19°C° 0 mm 3 mps 753 mmHg 67%
01:00 +18°C° 0 mm 3 mps 753 mmHg 69%
02:00 +18°C° 0 mm 3 mps 753 mmHg 71%
03:00 +17°C° 0 mm 3 mps 753 mmHg 71%
04:00 +17°C° 0 mm 3 mps 753 mmHg 71%
05:00 +17°C° 0 mm 2 mps 753 mmHg 72%
06:00 +19°C° 0 mm 3 mps 754 mmHg 66%
07:00 +21°C° 0 mm 3 mps 754 mmHg 59%
08:00 +25°C° 0 mm 3 mps 754 mmHg 53%
09:00 +26°C° 0 mm 3 mps 754 mmHg 49%
10:00 +27°C° 0 mm 3 mps 754 mmHg 45%
11:00 +28°C° 0 mm 3 mps 754 mmHg 41%
12:00 +29°C° 0 mm 3 mps 754 mmHg 39%
13:00 +29°C° 0 mm 3 mps 754 mmHg 38%
14:00 +30°C° 0 mm 3 mps 754 mmHg 36%
15:00 +30°C° 0 mm 3 mps 754 mmHg 39%
16:00 +29°C° 0 mm 3 mps 754 mmHg 41%
17:00 +29°C° 0 mm 4 mps 754 mmHg 43%
18:00 +27°C° 0 mm 3 mps 754 mmHg 50%
19:00 +25°C° 0 mm 3 mps 754 mmHg 56%
20:00 +21°C° 0 mm 3 mps 754 mmHg 63%
21:00 +21°C° 0 mm 3 mps 754 mmHg 65%
22:00 +20°C° 0 mm 2 mps 755 mmHg 68%
23:00 +19°C° 0 mm 2 mps 755 mmHg 70%

Day after tomorrow, 6 August, Thursday

Time Temperature Precipitation Wind Pressure Humidity
00:00 +19°C° 0 mm 2 mps 755 mmHg 73%
01:00 +18°C° 0 mm 2 mps 755 mmHg 75%
02:00 +18°C° 0 mm 3 mps 755 mmHg 78%
03:00 +18°C° 0 mm 3 mps 755 mmHg 79%
04:00 +17°C° 0 mm 3 mps 755 mmHg 80%
05:00 +17°C° 0 mm 3 mps 755 mmHg 81%
06:00 +19°C° 0 mm 3 mps 756 mmHg 73%
07:00 +22°C° 0 mm 3 mps 756 mmHg 66%
08:00 +25°C° 0 mm 4 mps 756 mmHg 59%
09:00 +26°C° 0 mm 4 mps 756 mmHg 53%
10:00 +28°C° 0 mm 4 mps 756 mmHg 48%
11:00 +29°C° 0 mm 4 mps 756 mmHg 43%
12:00 +30°C° 0 mm 4 mps 756 mmHg 42%
13:00 +30°C° 0 mm 4 mps 755 mmHg 41%
14:00 +32°C° 0 mm 4 mps 755 mmHg 40%
15:00 +30°C° 0 mm 4 mps 755 mmHg 42%
16:00 +30°C° 0 mm 4 mps 755 mmHg 45%
17:00 +29°C° 0 mm 4 mps 755 mmHg 47%
18:00 +27°C° 0 mm 4 mps 755 mmHg 54%
19:00 +25°C° 0 mm 3 mps 755 mmHg 60%
20:00 +22°C° 0 mm 3 mps 755 mmHg 67%
21:00 +21°C° 0 mm 3 mps 755 mmHg 69%
22:00 +21°C° 0 mm 3 mps 755 mmHg 72%
23:00 +20°C° 0 mm 3 mps 755 mmHg 75%

7 August, Friday

Time Temperature Precipitation Wind Pressure Humidity
00:00 +20°C° 0 mm 3 mps 755 mmHg 76%
01:00 +19°C° 0 mm 2 mps 755 mmHg 78%
02:00 +19°C° 0 mm 2 mps 755 mmHg 79%
03:00 +18°C° 0 mm 2 mps 755 mmHg 80%
04:00 +18°C° 0 mm 3 mps 755 mmHg 81%
05:00 +18°C° 0 mm 3 mps 755 mmHg 82%
06:00 +20°C° 0 mm 3 mps 755 mmHg 74%
07:00 +24°C° 0 mm 3 mps 755 mmHg 66%
08:00 +26°C° 0 mm 3 mps 755 mmHg 59%
09:00 +27°C° 0 mm 4 mps 755 mmHg 54%
10:00 +29°C° 0 mm 4 mps 755 mmHg 49%
11:00 +30°C° 0 mm 4 mps 755 mmHg 44%
12:00 +32°C° 0 mm 4 mps 755 mmHg 44%
13:00 +32°C° 0 mm 4 mps 754 mmHg 43%
14:00 +33°C° 0 mm 4 mps 754 mmHg 43%
15:00 +32°C° 0 mm 4 mps 754 mmHg 47%
16:00 +30°C° 0 mm 5 mps 754 mmHg 52%
17:00 +29°C° 0 mm 5 mps 753 mmHg 57%
18:00 +28°C° 0 mm 5 mps 754 mmHg 64%
19:00 +26°C° 0 mm 5 mps 754 mmHg 71%
20:00 +23°C° 0 mm 5 mps 754 mmHg 78%
21:00 +22°C° 0 mm 5 mps 754 mmHg 77%
22:00 +21°C° 0 mm 5 mps 754 mmHg 77%
23:00 +20°C° 0 mm 5 mps 754 mmHg 77%

8 August, Saturday

Time Temperature Precipitation Wind Pressure Humidity
00:00 +19°C° 0 mm 5 mps 754 mmHg 78%
01:00 +18°C° 0 mm 4 mps 753 mmHg 79%
02:00 +18°C° 0 mm 4 mps 753 mmHg 81%
03:00 +17°C° 0 mm 4 mps 753 mmHg 83%
04:00 +17°C° 0 mm 4 mps 753 mmHg 85%
05:00 +15°C° 0 mm 4 mps 753 mmHg 88%
06:00 +18°C° 0 mm 4 mps 753 mmHg 81%
07:00 +20°C° 0 mm 5 mps 753 mmHg 75%
08:00 +21°C° 0 mm 5 mps 753 mmHg 69%
09:00 +23°C° 0 mm 5 mps 753 mmHg 63%
10:00 +26°C° 0 mm 5 mps 753 mmHg 58%
11:00 +27°C° 0 mm 6 mps 752 mmHg 52%
12:00 +27°C° 0 mm 6 mps 752 mmHg 50%
13:00 +28°C° 0 mm 6 mps 752 mmHg 48%
14:00 +28°C° 0 mm 6 mps 751 mmHg 46%
15:00 +28°C° 0 mm 6 mps 751 mmHg 48%
16:00 +27°C° 0 mm 5 mps 751 mmHg 49%
17:00 +27°C° 0 mm 5 mps 751 mmHg 50%
18:00 +25°C° 0 mm 5 mps 751 mmHg 56%
19:00 +23°C° 0 mm 4 mps 751 mmHg 63%
20:00 +21°C° 0 mm 4 mps 751 mmHg 69%
21:00 +20°C° 0 mm 4 mps 751 mmHg 70%
22:00 +20°C° 0 mm 4 mps 751 mmHg 71%
23:00 +19°C° 0 mm 4 mps 751 mmHg 73%

9 August, Sunday

Time Temperature Precipitation Wind Pressure Humidity
00:00 +18°C° 0 mm 4 mps 750 mmHg 74%
01:00 +18°C° 0 mm 4 mps 750 mmHg 75%
02:00 +17°C° 0 mm 4 mps 750 mmHg 76%
03:00 +15°C° 0 mm 4 mps 750 mmHg 76%
04:00 +15°C° 0 mm 4 mps 750 mmHg 77%
05:00 +15°C° 0 mm 4 mps 750 mmHg 77%
06:00 +18°C° 0 mm 4 mps 750 mmHg 70%
07:00 +20°C° 0 mm 4 mps 750 mmHg 63%
08:00 +22°C° 0 mm 5 mps 750 mmHg 56%
09:00 +23°C° 0 mm 5 mps 750 mmHg 52%
10:00 +25°C° 0 mm 5 mps 750 mmHg 47%
11:00 +27°C° 0 mm 5 mps 750 mmHg 43%
12:00 +27°C° 0 mm 5 mps 749 mmHg 41%
13:00 +28°C° 0 mm 5 mps 749 mmHg 39%
14:00 +28°C° 0 mm 5 mps 749 mmHg 37%
15:00 +27°C° 0 mm 4 mps 749 mmHg 39%
16:00 +27°C° 0 mm 4 mps 748 mmHg 42%
17:00 +26°C° 0 mm 4 mps 748 mmHg 44%
18:00 +23°C° 0 mm 4 mps 748 mmHg 48%
19:00 +22°C° 0 mm 4 mps 748 mmHg 53%
20:00 +20°C° 0 mm 3 mps 749 mmHg 57%
21:00 +19°C° 0 mm 3 mps 749 mmHg 61%
22:00 +18°C° 0 mm 3 mps 749 mmHg 65%
23:00 +17°C° 0 mm 3 mps 749 mmHg 69%
Show more